Location: Ch�ze
(42.9000°N, 0.0333°W)
Time: 23:02:47
(UTC+00:00)

Meteor 1-11 - Pass Details

Date: 24 January 2021
Orbit: 840 x 887 km, 81.2° (Epoch: 24 February)

Event Time Altitude Azimuth Distance (km) Brightness Sun altitude
Rises 19:14:23 0° 195° (SSW) 3,447 7.6 -24.0°
Reaches altitude 10° 19:16:50 10° 198° (SSW) 2,507 6.9 -24.5°
Maximum altitude 19:22:30 68° 282° (WNW) 924 4.5 -25.5°
Drops below altitude 10° 19:28:09 10° 5° (N) 2,492 6.6 -26.5°
Enters shadow 19:29:59 - 8° (N) 3,193 7.1 -26.9°
